Погода в Ууксу

Россия / Республика Карелия     61°29′47″N   31°35′55″E
темп.,
°C
ветер,
м/с
пор.,
м/с
влажн.,
%
обл.,
%
осадки,
мм/ч
давл.,
гПа
погр.,
м
12 мая, ср
ср1200:00+9ю410825 0.0 1022117
03:00+7ююв359281 0.0 102365
06:00+7юв359260 0.0 102381
09:00+9юв468347 0.0 1023153
12:00+11ююв586947 0.0 1024247
15:00+13ююв586419 0.0 1023374
18:00+14юв47660 0.0 1021210
21:00+12юв33750 0.0 102032
13 мая, чт
чт1300:00+11ююв22770 0.0 102010
03:00+11в22790 0.0 101915
06:00+11вюв47862 0.0 1018115
09:00+13ююв467322 0.0 1018217
12:00+13ююв477147 0.0 1018502
15:00+14ю357147 0.0 1016575
18:00+12ююз228285 0.0 101590
21:00+11с118645 0.0 101310
14 мая, пт
пт1400:00+11св228737 0.0 101210
03:00+11ссв339290 0.0 101026
06:00+8ю4799100 1.6 1009143
09:00+8ю6129799 4.7 1010296
12:00+8ююв6109252 0.1 1011368
15:00+9ю598049 0.2 1012528
18:00+9ююв4884100 0.3 1011283
21:00+9юв479499 0.7 1011173
15 мая, сб
сб1500:00+9в4797100 0.9 1010132
03:00+9вюв3696100 1.0 100992
06:00+8юв369511 0.0 1009106
09:00+10юв2490100 0.0 1008165
12:00+13в237750 0.0 1007397
15:00+13ю348183 1.8 1006367
18:00+11ююз339159 0.8 1005160
21:00+9сз229950 0.8 100428
16 мая, вс
вс1600:00+10ссв229871 0.0 100421
03:00+9ссв349849 0.1 100362
06:00+9ссв469585 0.0 1004149
09:00+11ссв358798 0.0 1005267
12:00+13ссз237777 0.0 1006448
15:00+13зсз337789 0.0 1007575
18:00+10з348895 0.0 1009105
21:00+9зюз1193100 0.0 101036